User: anonymous   Login
Location: Unspecified
(0.0000°N, 0.0000°E)
Time: 07:08:18
(UTC+00:00)
Language:

Mayak - Orbit

View from above orbital plane
View from above orbital plane
View from above satellite
View from above satellite

Ground track
Ground track

The orbit data is extracted from the following two-line orbital elements,

1 42830U 17042F   17291.58810052 +.00000994 +00000-0 +10622-3 0  9996
2 42830 097.6078 197.8320 0013063 283.5449 076.4314 14.90869925014333
Epoch (UTC): 18 October 2017 14:06:51
Eccentricity: 0.0013063
inclination: 97.6078°
perigee height: 586 km
apogee height: 604 km
right ascension of ascending node: 197.8320°
argument of perigee: 283.5449°
revolutions per day: 14.90869925
mean anomaly at epoch: 76.4314°
orbit number at epoch: 1433

The dashed part of the orbit path shows where the satellite is in the earth's shadow,  

DLR